Aeroporto :
LOGIN :

Iscrizione | Disclaimer

   EN    FR    IT 

 










Sommario :    VFR   VFR Marginale   IFR   IFR Intensivo   IFR Molto Intensivo
Visibilità : 
Base nubi : 
>= 8 km
>= 3000ft
5 / 8 km
1000 / 3000 ft
1500m / 5 km
500 / 1000 ft
800 / 1500m
200 / 500 ft
< 800m
< 200 ft
Simboli :   Temporali  Nebbia  Neve Forte  Precipitazioni Forti  Vento > 20 kt
SIGMETs :   Varie  Temporali  Ghiacco  Turbolenza  Onda orograficha  Ceneri Vulcaniche







- Altitudine del aeroporto : 7 ft
- Codice IATA : VCE


LIPZ - Marco Polo Int. Venezia

ULTIMO METAR :
  • 192220Z 09005KT CAVOK 24/22 Q1011 NOSIG

METARs OBSOLETI :
  • 192150Z 12005KT CAVOK 25/22 Q1011 NOSIG
  • 192120Z 13006KT 110V170 CAVOK 25/22 Q1011 NOSIG
  • 192050Z 13010KT CAVOK 25/22 Q1011 NOSIG
  • 192020Z 12009KT CAVOK 25/22 Q1011 NOSIG
  • 191950Z 10007KT CAVOK 25/22 Q1011 NOSIG

TAF TAF LIPZ
Valido dal 19 a 18 ore il 21 a 00 ore UTC


191700Z 1918/2024 03008KT 9999 FEW040
TEMPO 1918/1920 TSRA
BECMG 2008/2010 16010KT
BECMG 2016/2018 VRB05KT
Nessun NOTAM noto per questo aeroporto.



MetMap, La meteo Aeronautica in un colpo d'occhio ! - Copyright ORBIFLY Dicembre 2007 - Disclaimer

ORBIFLY MET'MAP TEAM :

Programmazione e sviluppo : Alexandra Zaïnal
Concezione e sviluppo : Baudouin d'Aumeries
Co-Programmazione e sviluppo : Marc-Olivier Méhu
Supporto tecnico e logistico : Manuel Goepfert
Aiuto per la traduzione : Arnaldo La Scala

Contatto : metmap@orbifly.com




FONTI E CREDITI :

   NOAA